Regional Weather Roundup
Issued by NWS

Home | Current Version | Previous Version | Text Only | Print | Product List | Glossary On
Versions: 1 2 3 4 5 6 7 8 9 10 11 12 13 14 15 16 17 18 19 20 21 22 23 24 25 26 27 28 29 30 31 32 33 34 35 36 37 38 39 40 41 42 43 44 45 46 47 48 49 50
000
ASUS45 KPSR 310310
RWRAZ

ARIZONA REGIONAL HOURLY WEATHER ROUNDUP
NATIONAL WEATHER SERVICE PHOENIX AZ
800 PM MST SAT AUG 30 2014

NOTE: FAIR INDICATES FEW OR NO CLOUDS BELOW 12,000 FEET WITH NO
SIGNIFICANT WEATHER AND/OR OBSTRUCTIONS TO VISIBILITY.

AZZ001>003-036-310400-
NORTHWEST ARIZONA

CITY           SKY/WX    TMP DP  RH WIND       PRES   REMARKS
BULLHEAD CITY  PTCLDY   104  34   9 SE14      29.62R
KINGMAN        PTCLDY    86  33  15 S9        29.88S
$$

AZZ004>008-015-016-018-310400-
NORTH CENTRAL ARIZONA

CITY           SKY/WX    TMP DP  RH WIND       PRES   REMARKS
GRAND CANYON     N/A    N/A N/A N/A MISG        N/A
WILLIAMS       PTCLDY    66  39  37 S7        30.23R
PRESCOTT       CLEAR     76  42  29 S3        30.05R
FLAGSTAFF      PTCLDY    65  42  43 CALM      30.21R
PAYSON         CLEAR     79  37  22 SW8       30.09R
PAGE           MOCLDY    88  32  13 SW5       29.89S
$$

AZZ009>014-017-310400-
NORTHEAST ARIZONA

CITY           SKY/WX    TMP DP  RH WIND       PRES   REMARKS
WINSLOW        PTCLDY    75  45  34 SW10      30.02R
SAINT JOHNS    CLEAR     76  41  28 SW12      30.08R
WINDOW ROCK    PTCLDY    67  31  26 SW5       30.15
SHOW LOW       CLEAR     68  39  34 S9        30.18S
$$

AZZ023-310400-
GREATER PHOENIX AREA

CITY           SKY/WX    TMP DP  RH WIND       PRES   REMARKS
PHOENIX        PTCLDY   105  37   9 NW6       29.69S
BUCKEYE          N/A     93  50  22 CALM      29.70R
LUKE AFB       NOT AVBL
DEER VALLEY    CLEAR     95  40  14 CALM      29.73R
SCOTTSDALE     CLEAR    100  41  13 CALM      29.75R
MESA-FALCON    CLEAR     99  41  13 W7        29.73R
MESA-GATEWAY   CLEAR     99  39  12 NW5       29.75R
CHANDLER       CLEAR    100  41  13 W6        29.72R
$$

AZZ027-028-310400-
SOUTHWEST MARICOPA COUNTY AND PINAL COUNTY

CITY           SKY/WX    TMP DP  RH WIND       PRES   REMARKS
CASA GRANDE    CLEAR     97  39  13 W5        29.75R
$$

AZZ503-504-507>509-310400-
SOUTHEAST ARIZONA

CITY           SKY/WX    TMP DP  RH WIND       PRES   REMARKS
TUCSON         CLEAR     94  39  14 W6        29.87R
DAVIS-MONTHAN  CLEAR     92  42  17 SW6       29.85R
RYAN FIELD       N/A     93  43  17 S8        29.85R
NOGALES        CLEAR     76  52  43 E5        29.99R
SIERRA VISTA   CLEAR     82  47  29 W13       30.05R
DOUGLAS        PTCLDY    81  55  40 S6        30.00R
SAFFORD        CLEAR     89  45  21 W5        29.87R
$$

AZZ020-021-025-026-031-310400-
SOUTHWEST ARIZONA

CITY           SKY/WX    TMP DP  RH WIND       PRES   REMARKS
YUMA           CLEAR    100  44  14 S10       29.65R
$$

CAZ031-033-041-043-047-048-061-310400-
SOUTHERN CALIFORNIA

CITY           SKY/WX    TMP DP  RH WIND       PRES   REMARKS
DOWNTOWN L.A.  CLEAR     75  64  68 CALM      29.75R
L.A. AIRPORT   PTCLDY    71  65  81 W6        29.75S
SAN DIEGO      PTCLDY    73  65  75 W6        29.78R
BURBANK        CLEAR     80  59  48 E8        29.76R
ONTARIO        PTCLDY    84  60  44 W7        29.77R
RIVERSIDE      CLEAR     85  51  31 W6        29.77R
PALM SPRINGS   CLEAR    105  35   9 VRB6      29.65R
IMPERIAL       CLEAR    104  46  14 S14       29.60R HX 100
BLYTHE         CLEAR    100  47  16 S8        29.62S
NEEDLES        CLEAR    104  34   9 SW10      29.64R
$$

NVZ020-UTZ003-310400-
SOUTHERN NEVADA-UTAH

CITY           SKY/WX    TMP DP  RH WIND       PRES   REMARKS
LAS VEGAS      MOCLDY    98  25   7 SW14      29.67S
SALT LAKE CITY MOCLDY    74  45  35 SW6       29.80S
$$

NMZ009-TXZ055-310400-
NEW MEXICO-WEST TEXAS

CITY           SKY/WX    TMP DP  RH WIND       PRES   REMARKS
ALBUQUERQUE    MOCLDY    77  44  30 SE8       30.04R
EL PASO        PTCLDY    86  45  23 S6        29.98R
$$


........................KEY........................
SKY/WX - SKY CONDITION/WEATHER
TMP    - TEMPERATURE IN FAHRENHEIT
DP     - DEW POINT IN FAHRENHEIT
RH     - RELATIVE HUMIDITY IN PERCENT
WIND   - DIRECTION AND SPEED IN MILES PER HOUR (MPH)
VRB    - VARIABLE WIND DIRECTION
PRES   - MEAN SEA LEVEL PRESSURE IN INCHES OF MERCURY
         F - FALLING PRESSURE   R - RISING PRESSURE
         S - STEADY PRESSURE
VSB    - VISIBILITY IN MILES
HX     - HEAT INDEX IN FAHRENHEIT
WCI    - WIND CHILL INDEX IN FAHRENHEIT
TC     - TEMPERATURE IN CELSIUS WHICH IS ALSO KNOWN AS
         TEMPERATURE IN CENTIGRADE
AFB    - AIR FORCE BASE
         LUKE AFB IS LUKE AIR FORCE BASE
         DAVIS-MONTHAN IS DAVIS-MONTHAN AIR FORCE BASE
NAS    - NAVAL AIR STATION
         EL CENTRO NAS IS EL CENTRO NAVAL AIR STATION
N/A    - NOT AVAILABLE


USA.gov is the U.S. government's official web portal to all federal, state and local government web resources and services.